TimeMST,TemperatureF,Dew PointF,Humidity,Sea Level PressureIn,VisibilityMPH,Wind Direction,Wind SpeedMPH,Gust SpeedMPH,PrecipitationIn,Events,Conditions,WindDirDegrees,DateUTC
12:53 AM,48.0,28.0,46,29.91,10.0,WSW,12.7,19.6,N/A,,Clear,240,2012-11-20 07:53:00
1:53 AM,48.9,28.0,44,29.89,10.0,WSW,12.7,-,N/A,,Clear,250,2012-11-20 08:53:00
2:53 AM,48.9,28.0,44,29.88,10.0,SW,11.5,-,N/A,,Clear,230,2012-11-20 09:53:00
3:53 AM,50.0,28.0,43,29.89,10.0,WSW,13.8,-,N/A,,Clear,250,2012-11-20 10:53:00
4:53 AM,48.9,28.9,46,29.90,10.0,WSW,15.0,-,N/A,,Clear,250,2012-11-20 11:53:00
5:53 AM,51.1,28.0,41,29.91,10.0,WSW,13.8,-,N/A,,Clear,240,2012-11-20 12:53:00
6:53 AM,51.1,28.0,41,29.91,10.0,WSW,17.3,-,N/A,,Scattered Clouds,250,2012-11-20 13:53:00
7:53 AM,50.0,28.0,43,29.91,10.0,WSW,13.8,-,N/A,,Mostly Cloudy,250,2012-11-20 14:53:00
8:53 AM,50.0,28.9,44,29.92,10.0,WSW,12.7,-,N/A,,Mostly Cloudy,240,2012-11-20 15:53:00
9:53 AM,55.0,30.0,38,29.90,10.0,WSW,13.8,-,N/A,,Scattered Clouds,240,2012-11-20 16:53:00
10:53 AM,62.1,30.9,31,29.89,10.0,SW,18.4,27.6,N/A,,Scattered Clouds,230,2012-11-20 17:53:00
11:53 AM,63.0,30.9,30,29.86,10.0,WSW,21.9,31.1,N/A,,Scattered Clouds,240,2012-11-20 18:53:00
12:53 PM,63.0,30.0,29,29.84,10.0,SW,19.6,27.6,N/A,,Mostly Cloudy,220,2012-11-20 19:53:00
1:53 PM,63.0,30.9,30,29.83,10.0,SW,16.1,24.2,N/A,,Mostly Cloudy,230,2012-11-20 20:53:00
2:53 PM,60.1,32.0,35,29.82,10.0,West,9.2,-,N/A,,Mostly Cloudy,260,2012-11-20 21:53:00
3:53 PM,60.1,30.9,33,29.83,10.0,SW,12.7,-,N/A,,Mostly Cloudy,230,2012-11-20 22:53:00
4:53 PM,57.0,30.9,37,29.83,10.0,WSW,10.4,-,N/A,,Scattered Clouds,250,2012-11-20 23:53:00
5:53 PM,57.0,33.1,40,29.83,10.0,WSW,15.0,-,N/A,,Scattered Clouds,250,2012-11-21 00:53:00
6:53 PM,57.9,33.1,39,29.84,10.0,West,12.7,-,N/A,,Scattered Clouds,260,2012-11-21 01:53:00
7:53 PM,55.9,33.1,42,29.84,10.0,SW,6.9,-,N/A,,Clear,230,2012-11-21 02:53:00
8:53 PM,54.0,34.0,47,29.84,10.0,SW,8.1,-,N/A,,Clear,230,2012-11-21 03:53:00
9:53 PM,55.9,34.0,44,29.82,10.0,West,13.8,-,N/A,,Scattered Clouds,270,2012-11-21 04:53:00
10:53 PM,53.1,33.1,47,29.80,10.0,SW,9.2,-,N/A,,Mostly Cloudy,220,2012-11-21 05:53:00
11:53 PM,54.0,33.1,45,29.80,10.0,WSW,10.4,-,N/A,,Partly Cloudy,250,2012-11-21 06:53:00